Location: Wien
(48.2082°N, 16.3738°E)
Time: 04:31:16
(UTC+02:00)

Tiros 1 despin weight - All Passes

Search period start: 12 September 2024 00:00
Search period end: 22 September 2024 00:00
Orbit: 573 x 617 km, 48.2° (Epoch: 11 September)

Date Brightness Start Highest point End Pass type
(mag) Time Alt. Az. Time Alt. Az. Time Alt. Az.
12 Sep - 05:23:48 10° SW 05:27:57 36° SSE 05:32:07 10° E visible
12 Sep - 07:04:11 10° WSW 07:08:45 81° S 07:13:18 10° E daylight
12 Sep - 08:45:17 10° W 08:49:51 85° S 08:54:24 10° E daylight
12 Sep - 10:26:27 10° W 10:30:43 40° SSW 10:34:56 10° SE daylight
12 Sep - 12:09:36 10° WSW 12:10:53 11° SW 12:12:10 10° SSW daylight
13 Sep - 03:53:57 10° S 03:56:35 15° SE 03:59:13 10° ESE visible
13 Sep - 05:32:31 10° SW 05:36:55 50° SSE 05:41:19 10° E visible
13 Sep - 07:13:17 10° W 07:17:52 89° S 07:22:26 10° E daylight
13 Sep - 08:54:24 10° W 08:58:58 73° SSW 09:03:28 10° ESE daylight
13 Sep - 10:35:44 10° W 10:39:38 28° SW 10:43:29 10° SSE daylight
14 Sep - 04:01:46 10° SSW 04:05:21 23° SE 04:08:58 10° E visible
14 Sep - 05:41:25 10° WSW 05:45:55 65° SSE 05:50:26 10° E visible
14 Sep - 07:22:24 10° W 07:26:59 89° N 07:31:32 10° E daylight
14 Sep - 09:03:30 10° W 09:07:59 58° SSW 09:12:25 10° ESE daylight
14 Sep - 10:45:13 10° W 10:48:26 19° SW 10:51:38 10° S daylight
15 Sep - 04:10:07 10° SSW 04:14:12 34° SSE 04:18:18 10° E visible
15 Sep - 05:50:24 10° WSW 05:54:57 79° S 05:59:31 10° E visible
15 Sep - 07:31:29 10° W 07:36:04 86° S 07:40:37 10° E daylight
15 Sep - 09:12:38 10° W 09:16:56 43° SSW 09:21:13 10° SE daylight
15 Sep - 10:55:24 10° WSW 10:57:09 12° SW 10:58:54 10° SSW daylight
16 Sep - 02:40:25 10° S 02:42:48 14° SE 02:45:11 10° ESE visible
16 Sep - 04:18:44 10° SW 04:23:05 47° SSE 04:27:28 10° E visible
16 Sep - 05:59:27 10° W 06:04:00 89° S 06:08:35 10° E visible
16 Sep - 07:40:33 10° W 07:45:07 75° SSW 07:49:39 10° ESE daylight
16 Sep - 09:21:50 10° W 09:25:49 30° SSW 09:29:45 10° SSE daylight
17 Sep - 02:48:03 10° SSW 02:51:30 22° SE 02:54:59 10° E visible
17 Sep - 04:27:33 10° WSW 04:32:02 63° SSE 04:36:32 10° E visible
17 Sep - 06:08:29 10° W 06:13:04 89° N 06:17:38 10° E daylight
17 Sep - 07:49:35 10° W 07:54:06 60° SSW 07:58:34 10° ESE daylight
17 Sep - 09:31:13 10° W 09:34:35 20° SW 09:37:55 10° S daylight
18 Sep - 02:56:16 10° SSW 03:00:16 32° SSE 03:04:19 10° E visible
18 Sep - 04:36:28 10° WSW 04:41:00 78° SSE 04:45:33 10° E visible
18 Sep - 06:17:31 10° W 06:22:05 87° S 06:26:40 10° E daylight
18 Sep - 07:58:39 10° W 08:03:00 45° SSW 08:07:19 10° SE daylight
18 Sep - 09:41:08 10° WSW 09:43:15 13° SW 09:45:21 10° SSW daylight
19 Sep - 01:26:47 10° SSE 01:28:51 13° SE 01:30:56 10° ESE night (unlit)
19 Sep - 03:04:48 10° SW 03:09:06 45° SSE 03:13:26 10° E visible
19 Sep - 04:45:27 10° W 04:50:00 88° SSE 04:54:34 10° E visible
19 Sep - 06:26:32 10° W 06:31:05 77° SSW 06:35:38 10° ESE daylight
19 Sep - 08:07:46 10° W 08:11:49 32° SSW 08:15:51 10° SSE daylight
20 Sep - 01:34:11 10° S 01:37:29 20° SE 01:40:49 10° E night (unlit)
20 Sep - 03:13:32 10° WSW 03:17:58 60° SSE 03:22:27 10° E visible
20 Sep - 04:54:26 10° W 04:58:59 89° N 05:03:34 10° E visible
20 Sep - 06:35:31 10° W 06:40:01 63° SSW 06:44:31 10° ESE daylight
20 Sep - 08:17:03 10° W 08:20:32 22° SW 08:24:01 10° SSE daylight
21 Sep - 01:42:17 10° SSW 01:46:11 30° SSE 01:50:08 10° E visible
21 Sep - 03:22:22 10° WSW 03:26:53 75° SSE 03:31:25 10° E visible
21 Sep - 05:03:24 10° W 05:07:58 88° S 05:12:32 10° E visible
21 Sep - 06:44:30 10° W 06:48:53 47° SSW 06:53:14 10° SE daylight
21 Sep - 08:26:46 10° WSW 08:29:11 14° SW 08:31:34 10° S daylight
